Find Telecom 1C

NORAD ID: 18952 Int'l Des: 1988-018 Owner: FTEL Country: F operational
HEOCIRCULAR

实时位置

正在加载3D地球...

关于 Telecom 1C

正在加载描述...

即将过境

Passes for default location (London). Set your location on the main map for personalized predictions.

高度历史

Loading altitude history...

两行轨道根数

1 18952U 88018B 26131.88968641 -.00000179 00000-0 00000-0 0 9991
2 18952 15.0975 349.5784 0097261 153.3121 20.7487 0.97959512115096
Epoch: May 11, 2026 • Age: 21 hours

当前状态

高度 36081.2 km
速度 3.08 km/s
星下点 12.33°N, 33.25°W
发射日期 Mar 11, 1988
运行时间 38.1 years
类型 other

技术详情

分类 Payload
质量 693.00 kg
干质量 525.00 kg
总质量 1213.00 kg
长度 3.00 m
直径 2.20 m
跨度 16.00 m
形状 Box + 2 Pan
制造商 MATT
平台类型 ECS
阶段状态 In Orbit
所有者/国家 FTEL/F

Most Searched